Weather in Arys

Kazakhstan     42°25′21″N   68°47′50″E
temp.,
°C
wind,
m/s
gust,
m/s
humid.,
%
clouds,
%
prec.,
mm/h
press.,
hPa
HPBL,
m
23 april, fri
fri2300:00+7ne59441 0.0 1028169
03:00+6ne47490 0.0 1026121
06:00+6ne48563 0.0 1026144
09:00+10ene61053100 0.0 1026348
12:00+18ene673612 0.0 1025882
15:00+21ene66295 0.0 10231194
18:00+20ne663335 0.0 1021941
21:00+13ne47475 0.0 1022118
24 april, sat
sat2400:00+9ne51046100 0.0 1022191
03:00+8ne4845100 0.0 1020151
06:00+8ne4747100 0.0 1019124
09:00+12ene335397 0.0 1020166
12:00+19sw1237100 0.0 1019589
15:00+21w2228100 0.0 1019852
18:00+20ssw1238100 0.0 1019140
21:00+14nnw00445 0.0 102011
25 april, sun
sun2500:00+13e12450 0.0 102011
03:00+12ese33565 0.0 102025
06:00+11e336598 0.0 102014
09:00+16e234964 0.0 1020145
12:00+23ne2228100 0.0 1020581
15:00+27nne23180 0.0 10191268
18:00+27ne34200 0.0 10181350
21:00+20ne34310 0.0 101930
26 april, mon
mon2600:00+16e464743 0.0 101982
03:00+15e454737 0.0 101966
06:00+14ene33491 0.0 101823
09:00+19ne34400 0.0 1019194
12:00+26ne46288 0.0 1017762
15:00+29ne45220 0.0 10161395
18:00+28ne55270 0.0 10151405
21:00+20ne611390 0.0 1015186
27 april, tue
tue2700:00+18ene45400 0.0 101470
03:00+16ne45420 0.0 101363
06:00+15ene45470 0.0 101367
09:00+20ene34460 0.0 1013198
12:00+27e22310 0.0 1012592
15:00+32ne11200 0.0 10101180
18:00+32nne12185 0.0 10091510
21:00+25e23323 0.0 101011